Погода в Климове

Россия / Брянская область     52°22′46″N   32°11′50″E
темп.,
°C
ветер,
м/с
пор.,
м/с
влажн.,
%
обл.,
%
осадки,
мм/ч
давл.,
гПа
погр.,
м
16 мая, вс
вс1600:00+11ююз33925 0.0 101145
03:00+10ю34945 0.0 101150
06:00+10ююз35955 0.0 1012100
09:00+16ююз34775 0.0 1012472
12:00+19ююз346432 0.0 10121312
15:00+19ю347198 0.1 1012463
18:00+20юв1366100 0.0 1011987
21:00+15в2278100 0.0 101120
17 мая, пн
пн1700:00+13в3388100 0.0 101033
03:00+13в3587100 0.0 101090
06:00+13всв41187100 0.0 1008209
09:00+17всв61285100 1.0 1006449
12:00+22вюв71170100 0.0 10041026
15:00+23юв686217 0.0 10031244
18:00+21юв51074100 0.0 1002654
21:00+17вюв4109478 1.9 1002211
18 мая, вт
вт1800:00+16ююв5129618 1.3 1002357
03:00+15ююв4998100 1.3 1003315
06:00+15ю4895100 0.0 1004443
09:00+17ююв4689100 0.1 1004550
12:00+18юв5684100 1.2 1004666
15:00+18ююв4583100 2.7 1004724
18:00+16юв5887100 4.9 1003299
21:00+15юв3589100 7.1 1004114
19 мая, ср
ср1900:00+13вюв3696100 0.0 1004104
03:00+13вюв369694 0.0 1003149
06:00+13юв3693100 0.0 1003176
09:00+13вюв3895100 0.2 1004302
12:00+17ююв5681100 1.0 1004868
15:00+18ююв6770100 1.8 10041195
18:00+16ююв577824 0.3 1004730
21:00+12юв33909 0.4 100527
20 мая, чт
чт2000:00+11юв22926 0.0 100418
03:00+10ю229412 0.0 100528
06:00+10юз259829 0.0 1005142
09:00+13юз468397 0.0 1006749
12:00+11з6118858 0.4 1008799
15:00+15з6107461 0.5 10091203
18:00+15зсз467396 0.2 1010816
21:00+11ююв1186100 0.3 101211